This is the latest recevied weather packets stored in our database for station/object N7BTW-13. If no packets are shown the sender has not sent any weather packets the latest 10 day(s).
| Time | Temp. | Humidity | Pressure | Rain* | Wind** | Luminosity | Snow |
|---|---|---|---|---|---|---|---|
| 1787940008 | 21.11° C | 62% | - | 0 mm | - | - | - |
| 1787939406 | 21.11° C | 62% | - | 0 mm | - | - | - |
| 1787938806 | 21.67° C | 62% | - | 0 mm | - | - | - |
| 1787938210 | 21.67° C | 63% | - | 0 mm | - | - | - |
| 1787937612 | 22.22° C | 62% | - | 0 mm | - | - | - |
| 1787937007 | 21.67° C | 65% | - | 0 mm | - | - | - |
| 1787936407 | 21.11° C | 67% | - | 0 mm | - | - | - |
| 1787935806 | 20° C | 70% | - | 0 mm | - | - | - |
| 1787935207 | 18.89° C | 73% | - | 0 mm | - | - | - |
| 1787934608 | 18.89° C | 76% | - | 0 mm | - | - | - |
| 1787934008 | 17.78° C | 80% | - | 0 mm | - | - | - |
| 1787933407 | 17.22° C | 82% | - | 0 mm | - | - | - |
| 1787932808 | 17.78° C | 80% | - | 0 mm | - | - | - |
| 1787932210 | 17.78° C | 82% | - | 0 mm | - | - | - |
| 1787931611 | 16.11° C | 88% | - | 0 mm | - | - | - |
| 1787931009 | 15° C | 96% | - | 0 mm | - | - | - |
| 1787930410 | 14.44° C | 97% | - | 0 mm | - | - | - |
| 1787929807 | 12.78° C | 99% | - | 0 mm | - | - | - |
| 1787923207 | 10.56° C | 99% | - | 0 mm | - | - | - |
| 1787922607 | 10.56° C | 99% | - | 0 mm | - | - | - |
| 1787922008 | 11.11° C | 99% | - | 0 mm | - | - | - |
| 1787921410 | 11.11° C | 99% | - | 0 mm | - | - | - |
| 1787920806 | 11.11° C | 99% | - | 0 mm | - | - | - |
| 1787920207 | 11.67° C | 99% | - | 0 mm | - | - | - |
| 1787919609 | 11.67° C | 99% | - | 0 mm | - | - | - |
* Rain latest hour (hover to see other rain measurements)
** Current wind speed in m/s (hover to see current wind gust speed)